QPF
0.00 0.00 0.00 0.00 0.00 0.00 0.00 0.00 0.00 0.00 0.00 0.00 0.01 0.01 0.01 0.01 0.01 0.00 0.01 0.00 0.00 0.00 0.00 0.00 0.00 0.00 0.00 0.00 0.01 0.01 0.01 0.01 0.01 0.01 0.01 0.01 0.02 0.01 0.01 0.00 0.00 0.00 0.01
0.00 0.00 0.00 0.00 0.00 0.00 0.00 0.00 0.00 0.00 0.00 0.00 0.01 0.01 0.01 0.01 0.00 0.00 0.00 0.00 0.00 0.00 0.00 0.00 0.00 0.00 0.00 0.00 0.01 0.01 0.01 0.01 0.00 0.00 0.00 0.00 0.01 0.01 0.01 0.01 0.01 0.01 0.01
0.00 0.00 0.00 0.00 0.00 0.00 0.00 0.00 0.00 0.00 0.00 0.00 0.01 0.01 0.01 0.01 0.00 0.00 0.00 0.00 0.00 0.00 0.00 0.00 0.00 0.00 0.00 0.00 0.00 0.01 0.01 0.00 0.00 0.00 0.00 0.00 0.00 0.01 0.01 0.01 0.01 0.01 0.01
0.00 0.00 0.00 0.00 0.00 0.00 0.00 0.00 0.00 0.00 0.00 0.00 0.01 0.01 0.00 0.00 0.00 0.00 0.00 0.00 0.00 0.00 0.00 0.00 0.00 0.00 0.00 0.00 0.00 0.00 0.00 0.00 0.00 0.00 0.00 0.00 0.00 0.01 0.01 0.01 0.01 0.01 0.01
0.00 0.00 0.00 0.00 0.00 0.00 0.00 0.00 0.00 0.00 0.00 0.00 0.00 0.00 0.00 0.00 0.00 0.00 0.00 0.00 0.00 0.00 0.00 0.00 0.00 0.00 0.00 0.00 0.00 0.00 0.00 0.00 0.00 0.00 0.00 0.00 0.00 0.01 0.01 0.01 0.01 0.01 0.01
0.00 0.00 0.00 0.00 0.00 0.00 0.00 0.00 0.00 0.00 0.00 0.00 0.00 0.00 0.00 0.00 0.00 0.00 0.00 0.00 0.00 0.00 0.00 0.00 0.00 0.00 0.00 0.00 0.00 0.00 0.00 0.00 0.00 0.00 0.00 0.00 0.00 0.01 0.01 0.00 0.00 0.00 0.01
0.00 0.00 0.00 0.00 0.00 0.00 0.00 0.00 0.00 0.00 0.00 0.00 0.00 0.00 0.00 0.00 0.00 0.00 0.00 0.00 0.00 0.00 0.00 0.00 0.00 0.00 0.00 0.00 0.00 0.00 0.00 0.00 0.00 0.00 0.00 0.00 0.00 0.00 0.00 0.00 0.00 0.00 0.00
0.00 0.00 0.00 0.00 0.00 0.00 0.00 0.01 0.00 0.00 0.00 0.00 0.00 0.00 0.00 0.00 0.00 0.00 0.00 0.00 0.00 0.00 0.00 0.00 0.00 0.00 0.00 0.00 0.00 0.00 0.00 0.00 0.00 0.00 0.00 0.00 0.00 0.00 0.00 0.00 0.00 0.00 0.00
0.00 0.00 0.00 0.00 0.00 0.00 0.00 0.01 0.01 0.01 0.00 0.00 0.00 0.00 0.00 0.00 0.00 0.00 0.00 0.00 0.00 0.00 0.00 0.00 0.00 0.00 0.00 0.00 0.00 0.00 0.00 0.00 0.00 0.00 0.00 0.00 0.00 0.00 0.00 0.00 0.00 0.00 0.00
0.00 0.00 0.00 0.00 0.00 0.00 0.00 0.01 0.01 0.01 0.00 0.00 0.00 0.00 0.00 0.00 0.00 0.00 0.00 0.00 0.00 0.00 0.00 0.00 0.00 0.00 0.00 0.00 0.00 0.00 0.00 0.00 0.00 0.00 0.00 0.00 0.00 0.00 0.00 0.00 0.00 0.00 0.00
0.00 0.00 0.00 0.00 0.00 0.00 0.00 0.00 0.01 0.01 0.01 0.00 0.00 0.00 0.00 0.00 0.00 0.00 0.00 0.00 0.00 0.00 0.00 0.00 0.00 0.00 0.00 0.00 0.00 0.00 0.00 0.00 0.00 0.00 0.00 0.00 0.00 0.00 0.00 0.00 0.00 0.00 0.00
0.00 0.00 0.00 0.00 0.00 0.00 0.00 0.00 0.00 0.00 0.00 0.00 0.00 0.00 0.00 0.00 0.00 0.00 0.00 0.00 0.00 0.00 0.00 0.00 0.00 0.00 0.00 0.00 0.00 0.00 0.00 0.00 0.00 0.00 0.00 0.00 0.00 0.00 0.00 0.00 0.00 0.00 0.00
0.00 0.00 0.00 0.00 0.00 0.00 0.00 0.00 0.00 0.00 0.00 0.00 0.00 0.00 0.00 0.00 0.00 0.00 0.00 0.00 0.00 0.00 0.00 0.00 0.00 0.00 0.00 0.00 0.00 0.00 0.00 0.00 0.00 0.00 0.00 0.00 0.00 0.00 0.00 0.00 0.00 0.00 0.00
0.00 0.00 0.00 0.00 0.00 0.00 0.00 0.00 0.00 0.00 0.00 0.00 0.00 0.00 0.00 0.00 0.00 0.00 0.00 0.00 0.00 0.00 0.00 0.00 0.00 0.00 0.00 0.00 0.00 0.00 0.00 0.00 0.00 0.00 0.00 0.00 0.00 0.00 0.00 0.00 0.00 0.00 0.00
0.00 0.00 0.00 0.00 0.00 0.00 0.00 0.00 0.00 0.00 0.00 0.00 0.00 0.00 0.00 0.00 0.00 0.00 0.00 0.00 0.00 0.00 0.00 0.00 0.00 0.00 0.00 0.00 0.00 0.00 0.00 0.00 0.00 0.00 0.00 0.00 0.00 0.00 0.00 0.00 0.00 0.00 0.00
0.00 0.00 0.00 0.00 0.00 0.00 0.00 0.00 0.00 0.00 0.00 0.00 0.00 0.00 0.00 0.00 0.00 0.00 0.00 0.00 0.00 0.00 0.00 0.00 0.00 0.00 0.00 0.00 0.00 0.00 0.00 0.00 0.00 0.00 0.00 0.00 0.00 0.00 0.00 0.00 0.00 0.00 0.00
0.00 0.00 0.00 0.00 0.00 0.00 0.00 0.00 0.00 0.00 0.00 0.00 0.00 0.00 0.00 0.00 0.00 0.00 0.00 0.00 0.00 0.00 0.00 0.00 0.00 0.00 0.00 0.00 0.00 0.00 0.00 0.00 0.00 0.00 0.00 0.00 0.00 0.00 0.00 0.00 0.00 0.00 0.00
0.00 0.00 0.00 0.00 0.00 0.00 0.00 0.00 0.00 0.00 0.00 0.00 0.00 0.00 0.00 0.00 0.00 0.00 0.00 0.00 0.00 0.00 0.00 0.00 0.00 0.00 0.00 0.00 0.00 0.00 0.00 0.00 0.00 0.00 0.00 0.00 0.00 0.00 0.00 0.00 0.00 0.00 0.00
0.00 0.00 0.00 0.00 0.00 0.00 0.00 0.00 0.00 0.00 0.00 0.00 0.00 0.00 0.00 0.00 0.00 0.00 0.00 0.00 0.00 0.00 0.00 0.00 0.00 0.00 0.00 0.00 0.00 0.00 0.00 0.00 0.00 0.00 0.00 0.00 0.00 0.00 0.00 0.00 0.00 0.00 0.00
0.00 0.00 0.00 0.00 0.00 0.00 0.00 0.00 0.00 0.00 0.00 0.00 0.00 0.00 0.00 0.00 0.00 0.00 0.00 0.00 0.00 0.00 0.00 0.00 0.00 0.00 0.00 0.00 0.00 0.00 0.00 0.00 0.00 0.00 0.00 0.00 0.00 0.00 0.00 0.00 0.00 0.00 0.00
0.00 0.00 0.00 0.00 0.00 0.00 0.00 0.00 0.00 0.00 0.00 0.00 0.00 0.00 0.00 0.00 0.00 0.00 0.00 0.00 0.00 0.00 0.00 0.00 0.00 0.00 0.00 0.00 0.00 0.00 0.00 0.00 0.00 0.00 0.00 0.00 0.00 0.00 0.00 0.00 0.00 0.00 0.00
0.00 0.00 0.00 0.00 0.00 0.00 0.00 0.00 0.00 0.00 0.00 0.00 0.00 0.00 0.00 0.00 0.00 0.00 0.00 0.00 0.00 0.00 0.00 0.00 0.00 0.00 0.00 0.00 0.00 0.00 0.00 0.00 0.00 0.00 0.00 0.00 0.00 0.00 0.00 0.00 0.00 0.00 0.00
0.00 0.00 0.00 0.00 0.00 0.00 0.00 0.00 0.00 0.00 0.00 0.00 0.00 0.00 0.00 0.00 0.00 0.00 0.00 0.00 0.00 0.00 0.00 0.00 0.00 0.00 0.00 0.00 0.00 0.00 0.00 0.00 0.00 0.00 0.00 0.00 0.00 0.00 0.00 0.00 0.00 0.00 0.00
0.00 0.00 0.00 0.00 0.00 0.00 0.00 0.00 0.00 0.00 0.00 0.00 0.00 0.00 0.00 0.00 0.00 0.00 0.00 0.00 0.00 0.00 0.00 0.00 0.00 0.00 0.00 0.00 0.00 0.00 0.00 0.00 0.00 0.00 0.00 0.00 0.00 0.00 0.00 0.00 0.00 0.00 0.00
0.00 0.00 0.00 0.00 0.00 0.00 0.00 0.00 0.00 0.00 0.00 0.00 0.00 0.00 0.00 0.00 0.00 0.00 0.00 0.00 0.00 0.00 0.00 0.00 0.00 0.00 0.00 0.00 0.00 0.00 0.00 0.00 0.00 0.00 0.00 0.00 0.00 0.00 0.00 0.00 0.00 0.00 0.00
0.00 0.00 0.00 0.00 0.00 0.00 0.00 0.00 0.00 0.00 0.00 0.00 0.00 0.00 0.00 0.00 0.00 0.00 0.00 0.00 0.00 0.00 0.00 0.00 0.00 0.00 0.00 0.00 0.00 0.00 0.00 0.00 0.00 0.00 0.00 0.00 0.00 0.00 0.00 0.00 0.00 0.00 0.00
MSLP
1018.52 1018.80 1019.19 1019.66 1020.16 1020.63 1021.03 1021.33 1021.52 1021.63 1021.69 1021.73 1021.80 1021.90 1022.05 1022.23 1022.42 1022.60 1022.72 1022.79 1022.80 1022.75 1022.66 1022.56 1022.47 1022.38 1022.32 1022.27 1022.22 1022.17 1022.11 1022.03 1021.93 1021.81 1021.68 1021.53 1021.40 1021.26 1021.13 1021.00 1020.89 1020.77 1020.65
1018.21 1018.49 1018.90 1019.41 1019.96 1020.50 1020.97 1021.34 1021.61 1021.78 1021.88 1021.95 1022.04 1022.16 1022.33 1022.53 1022.74 1022.94 1023.09 1023.19 1023.23 1023.22 1023.17 1023.11 1023.04 1022.99 1022.94 1022.89 1022.83 1022.76 1022.67 1022.55 1022.41 1022.26 1022.11 1021.96 1021.83 1021.70 1021.58 1021.46 1021.34 1021.23 1021.11
1017.94 1018.23 1018.65 1019.18 1019.77 1020.36 1020.89 1021.33 1021.66 1021.89 1022.05 1022.16 1022.29 1022.44 1022.62 1022.84 1023.06 1023.27 1023.43 1023.55 1023.61 1023.63 1023.61 1023.59 1023.56 1023.53 1023.50 1023.45 1023.39 1023.30 1023.17 1023.02 1022.86 1022.69 1022.53 1022.38 1022.24 1022.13 1022.01 1021.90 1021.79 1021.67 1021.55
1017.75 1018.05 1018.49 1019.03 1019.64 1020.25 1020.82 1021.31 1021.69 1021.97 1022.18 1022.35 1022.51 1022.68 1022.89 1023.11 1023.34 1023.54 1023.71 1023.83 1023.90 1023.94 1023.95 1023.96 1023.97 1023.97 1023.97 1023.94 1023.88 1023.78 1023.64 1023.47 1023.29 1023.11 1022.94 1022.80 1022.67 1022.56 1022.46 1022.35 1022.24 1022.12 1021.99
1017.67 1017.99 1018.43 1018.97 1019.58 1020.19 1020.77 1021.28 1021.69 1022.01 1022.26 1022.47 1022.67 1022.88 1023.11 1023.34 1023.56 1023.76 1023.92 1024.03 1024.11 1024.16 1024.20 1024.24 1024.28 1024.32 1024.35 1024.35 1024.30 1024.21 1024.07 1023.90 1023.71 1023.53 1023.37 1023.23 1023.11 1023.01 1022.91 1022.81 1022.69 1022.57 1022.44
1017.70 1018.04 1018.47 1019.00 1019.59 1020.18 1020.75 1021.24 1021.66 1022.00 1022.28 1022.53 1022.76 1023.00 1023.25 1023.49 1023.72 1023.91 1024.06 1024.17 1024.24 1024.30 1024.37 1024.44 1024.52 1024.60 1024.67 1024.69 1024.67 1024.60 1024.47 1024.31 1024.13 1023.96 1023.80 1023.67 1023.56 1023.46 1023.36 1023.25 1023.14 1023.01 1022.88
1017.80 1018.15 1018.58 1019.08 1019.63 1020.19 1020.72 1021.19 1021.59 1021.93 1022.23 1022.50 1022.77 1023.04 1023.31 1023.57 1023.81 1024.00 1024.15 1024.26 1024.34 1024.41 1024.49 1024.59 1024.71 1024.82 1024.92 1024.98 1024.99 1024.93 1024.83 1024.68 1024.52 1024.36 1024.21 1024.08 1023.97 1023.87 1023.77 1023.66 1023.55 1023.42 1023.30
1017.93 1018.27 1018.69 1019.16 1019.68 1020.19 1020.67 1021.10 1021.48 1021.81 1022.11 1022.40 1022.69 1023.00 1023.30 1023.59 1023.84 1024.05 1024.21 1024.32 1024.41 1024.49 1024.59 1024.71 1024.85 1025.00 1025.12 1025.21 1025.24 1025.21 1025.12 1024.99 1024.85 1024.70 1024.56 1024.44 1024.33 1024.23 1024.12 1024.00 1023.88 1023.76 1023.65
1018.02 1018.36 1018.76 1019.21 1019.68 1020.15 1020.59 1020.98 1021.33 1021.64 1021.94 1022.25 1022.57 1022.90 1023.24 1023.55 1023.83 1024.06 1024.23 1024.36 1024.46 1024.55 1024.67 1024.80 1024.96 1025.12 1025.26 1025.36 1025.40 1025.39 1025.32 1025.21 1025.08 1024.94 1024.81 1024.70 1024.59 1024.48 1024.36 1024.24 1024.12 1024.00 1023.89
1018.02 1018.35 1018.74 1019.18 1019.63 1020.07 1020.47 1020.84 1021.16 1021.46 1021.76 1022.08 1022.42 1022.77 1023.13 1023.48 1023.78 1024.02 1024.21 1024.35 1024.47 1024.57 1024.69 1024.84 1025.00 1025.16 1025.30 1025.40 1025.45 1025.44 1025.39 1025.29 1025.18 1025.06 1024.95 1024.84 1024.73 1024.62 1024.49 1024.36 1024.23 1024.10 1024.00
1017.92 1018.25 1018.64 1019.08 1019.52 1019.95 1020.34 1020.68 1021.00 1021.29 1021.59 1021.91 1022.26 1022.63 1023.01 1023.37 1023.68 1023.94 1024.14 1024.29 1024.42 1024.53 1024.65 1024.79 1024.95 1025.10 1025.23 1025.33 1025.37 1025.36 1025.32 1025.23 1025.14 1025.04 1024.95 1024.85 1024.75 1024.63 1024.50 1024.36 1024.21 1024.07 1023.96
1017.73 1018.07 1018.47 1018.92 1019.37 1019.80 1020.19 1020.54 1020.85 1021.15 1021.45 1021.77 1022.12 1022.50 1022.88 1023.23 1023.55 1023.81 1024.01 1024.16 1024.29 1024.40 1024.52 1024.65 1024.79 1024.92 1025.04 1025.12 1025.15 1025.14 1025.10 1025.03 1024.95 1024.88 1024.81 1024.73 1024.64 1024.53 1024.39 1024.23 1024.06 1023.90 1023.77
1017.49 1017.84 1018.26 1018.73 1019.20 1019.65 1020.06 1020.42 1020.74 1021.04 1021.34 1021.66 1022.00 1022.36 1022.73 1023.07 1023.37 1023.62 1023.81 1023.96 1024.08 1024.18 1024.28 1024.40 1024.52 1024.63 1024.72 1024.78 1024.80 1024.78 1024.74 1024.68 1024.63 1024.58 1024.54 1024.49 1024.42 1024.31 1024.17 1024.00 1023.81 1023.62 1023.46
1017.25 1017.62 1018.06 1018.55 1019.04 1019.51 1019.94 1020.31 1020.65 1020.95 1021.25 1021.56 1021.89 1022.23 1022.56 1022.88 1023.15 1023.38 1023.55 1023.68 1023.79 1023.88 1023.97 1024.06 1024.16 1024.25 1024.31 1024.35 1024.34 1024.31 1024.26 1024.21 1024.17 1024.15 1024.13 1024.11 1024.06 1023.98 1023.85 1023.67 1023.46 1023.24 1023.04
1017.07 1017.45 1017.90 1018.40 1018.91 1019.40 1019.84 1020.22 1020.56 1020.87 1021.16 1021.46 1021.76 1022.07 1022.37 1022.65 1022.89 1023.09 1023.24 1023.35 1023.44 1023.52 1023.59 1023.67 1023.74 1023.80 1023.84 1023.84 1023.81 1023.75 1023.69 1023.63 1023.59 1023.58 1023.59 1023.59 1023.58 1023.52 1023.40 1023.23 1023.01 1022.77 1022.53
1017.01 1017.38 1017.83 1018.33 1018.83 1019.32 1019.76 1020.14 1020.48 1020.77 1021.05 1021.32 1021.60 1021.88 1022.14 1022.39 1022.60 1022.77 1022.90 1022.99 1023.07 1023.13 1023.19 1023.25 1023.30 1023.33 1023.33 1023.29 1023.22 1023.13 1023.03 1022.95 1022.90 1022.88 1022.89 1022.92 1022.93 1022.90 1022.82 1022.66 1022.45 1022.20 1021.95
1017.07 1017.42 1017.85 1018.32 1018.81 1019.27 1019.69 1020.06 1020.37 1020.65 1020.91 1021.16 1021.40 1021.64 1021.87 1022.09 1022.27 1022.42 1022.53 1022.62 1022.68 1022.74 1022.79 1022.83 1022.86 1022.86 1022.82 1022.74 1022.62 1022.48 1022.33 1022.20 1022.10 1022.06 1022.06 1022.09 1022.12 1022.12 1022.07 1021.95 1021.76 1021.53 1021.27
1017.27 1017.58 1017.97 1018.40 1018.84 1019.26 1019.64 1019.97 1020.26 1020.51 1020.73 1020.95 1021.16 1021.36 1021.57 1021.76 1021.92 1022.05 1022.16 1022.24 1022.30 1022.36 1022.40 1022.43 1022.44 1022.41 1022.33 1022.20 1022.02 1021.81 1021.60 1021.40 1021.24 1021.14 1021.10 1021.11 1021.14 1021.16 1021.15 1021.08 1020.93 1020.73 1020.50
1017.58 1017.85 1018.17 1018.54 1018.92 1019.28 1019.61 1019.90 1020.14 1020.35 1020.54 1020.71 1020.89 1021.06 1021.24 1021.40 1021.55 1021.68 1021.78 1021.86 1021.92 1021.98 1022.02 1022.04 1022.03 1021.97 1021.86 1021.68 1021.45 1021.17 1020.87 1020.58 1020.34 1020.16 1020.05 1020.02 1020.03 1020.05 1020.07 1020.04 1019.96 1019.81 1019.62
1017.97 1018.18 1018.44 1018.74 1019.05 1019.35 1019.62 1019.85 1020.04 1020.21 1020.35 1020.48 1020.61 1020.75 1020.90 1021.04 1021.17 1021.28 1021.38 1021.46 1021.53 1021.59 1021.62 1021.64 1021.62 1021.55 1021.40 1021.19 1020.90 1020.56 1020.18 1019.80 1019.46 1019.18 1018.98 1018.87 1018.83 1018.84 1018.87 1018.88 1018.85 1018.77 1018.63
1018.40 1018.55 1018.74 1018.97 1019.21 1019.45 1019.66 1019.84 1019.99 1020.10 1020.19 1020.28 1020.36 1020.46 1020.56 1020.68 1020.78 1020.88 1020.97 1021.05 1021.11 1021.16 1021.20 1021.21 1021.19 1021.10 1020.95 1020.71 1020.39 1019.99 1019.54 1019.08 1018.64 1018.26 1017.96 1017.75 1017.64 1017.60 1017.61 1017.64 1017.65 1017.62 1017.55
1018.82 1018.91 1019.05 1019.22 1019.40 1019.59 1019.75 1019.89 1019.98 1020.05 1020.09 1020.13 1020.16 1020.21 1020.27 1020.34 1020.41 1020.49 1020.55 1020.61 1020.67 1020.71 1020.73 1020.74 1020.71 1020.62 1020.47 1020.22 1019.89 1019.47 1018.98 1018.45 1017.93 1017.44 1017.03 1016.72 1016.51 1016.40 1016.36 1016.37 1016.40 1016.41 1016.40
1019.19 1019.24 1019.34 1019.46 1019.60 1019.75 1019.88 1019.97 1020.04 1020.06 1020.06 1020.05 1020.03 1020.02 1020.03 1020.05 1020.08 1020.11 1020.14 1020.17 1020.19 1020.20 1020.21 1020.20 1020.17 1020.09 1019.94 1019.71 1019.39 1018.97 1018.47 1017.91 1017.33 1016.76 1016.25 1015.83 1015.51 1015.30 1015.18 1015.14 1015.15 1015.18 1015.20
1019.49 1019.52 1019.58 1019.67 1019.79 1019.91 1020.01 1020.09 1020.13 1020.13 1020.09 1020.03 1019.97 1019.91 1019.86 1019.82 1019.79 1019.77 1019.75 1019.73 1019.71 1019.68 1019.65 1019.62 1019.57 1019.48 1019.35 1019.14 1018.84 1018.46 1017.97 1017.42 1016.81 1016.20 1015.61 1015.09 1014.66 1014.33 1014.12 1014.00 1013.96 1013.96 1013.99
1019.70 1019.72 1019.76 1019.83 1019.93 1020.04 1020.14 1020.21 1020.24 1020.22 1020.16 1020.07 1019.97 1019.86 1019.75 1019.66 1019.57 1019.49 1019.40 1019.32 1019.24 1019.15 1019.07 1018.99 1018.91 1018.81 1018.68 1018.49 1018.24 1017.89 1017.45 1016.93 1016.33 1015.70 1015.06 1014.46 1013.93 1013.50 1013.17 1012.96 1012.84 1012.79 1012.80
1019.83 1019.84 1019.87 1019.94 1020.03 1020.14 1020.24 1020.32 1020.35 1020.32 1020.25 1020.14 1020.00 1019.85 1019.70 1019.55 1019.40 1019.26 1019.11 1018.96 1018.80 1018.64 1018.49 1018.34 1018.21 1018.08 1017.93 1017.76 1017.53 1017.24 1016.85 1016.38 1015.82 1015.20 1014.55 1013.90 1013.30 1012.77 1012.33 1012.01 1011.80 1011.69 1011.65
Thickness
5727 5724 5717 5714 5711 5708 5705 5703 5701 5699 5697 5696 5695 5693 5692 5690 5689 5688 5687 5686 5685 5685 5685 5685 5685 5686 5686 5686 5686 5687 5687 5688 5688 5689 5690 5692 5693 5694 5694 5695 5697 5698 5698
5731 5724 5716 5713 5709 5706 5703 5700 5698 5696 5694 5693 5691 5689 5688 5686 5685 5683 5682 5681 5681 5680 5680 5680 5680 5680 5680 5680 5680 5680 5681 5681 5681 5682 5684 5686 5687 5687 5688 5689 5690 5691 5692
5728 5723 5716 5712 5708 5704 5701 5698 5696 5693 5691 5690 5688 5686 5684 5682 5681 5679 5678 5677 5676 5675 5675 5674 5674 5674 5674 5673 5673 5674 5674 5674 5675 5676 5678 5680 5681 5681 5682 5682 5683 5684 5685
5726 5721 5717 5711 5706 5703 5699 5696 5694 5691 5689 5687 5684 5682 5680 5678 5676 5675 5673 5672 5671 5670 5669 5669 5669 5668 5668 5668 5667 5668 5668 5668 5669 5671 5673 5673 5674 5675 5675 5675 5676 5677 5678
5724 5720 5716 5710 5705 5701 5698 5695 5692 5689 5686 5684 5681 5679 5677 5675 5673 5671 5669 5667 5666 5665 5664 5664 5663 5663 5663 5662 5662 5662 5662 5662 5663 5666 5666 5667 5668 5668 5669 5669 5669 5670 5671
5723 5718 5714 5708 5704 5700 5696 5693 5689 5686 5683 5681 5678 5675 5673 5671 5669 5667 5665 5663 5661 5660 5659 5659 5658 5658 5658 5657 5657 5657 5656 5656 5659 5660 5660 5661 5662 5662 5662 5662 5663 5663 5664
5722 5717 5712 5706 5702 5697 5694 5690 5687 5683 5680 5678 5675 5672 5670 5668 5665 5663 5661 5659 5657 5656 5655 5654 5653 5653 5653 5652 5652 5651 5651 5651 5654 5654 5654 5654 5655 5655 5656 5656 5656 5657 5657
5719 5714 5710 5704 5699 5695 5691 5688 5684 5681 5677 5675 5672 5669 5667 5664 5662 5659 5657 5655 5653 5652 5651 5650 5649 5648 5648 5647 5647 5646 5646 5646 5647 5648 5648 5649 5648 5650 5650 5650 5650 5650 5651
5716 5711 5708 5702 5697 5692 5689 5685 5681 5678 5674 5672 5669 5666 5664 5661 5659 5656 5654 5652 5650 5648 5647 5646 5645 5644 5643 5643 5642 5642 5641 5641 5644 5643 5643 5643 5643 5644 5644 5644 5644 5645 5645
5712 5709 5705 5701 5696 5691 5686 5682 5678 5675 5671 5668 5666 5663 5660 5657 5655 5653 5651 5648 5646 5645 5643 5642 5641 5640 5639 5638 5638 5638 5637 5637 5639 5639 5639 5639 5638 5639 5639 5639 5639 5639 5639
5707 5705 5703 5700 5695 5690 5685 5680 5675 5671 5668 5665 5662 5659 5656 5654 5653 5650 5648 5645 5643 5641 5640 5638 5637 5636 5635 5635 5634 5634 5633 5635 5636 5635 5635 5634 5633 5634 5635 5635 5635 5634 5634
5706 5703 5700 5696 5692 5687 5682 5677 5673 5669 5665 5662 5660 5657 5654 5651 5649 5647 5644 5641 5639 5638 5636 5635 5634 5633 5632 5633 5632 5630 5631 5631 5631 5632 5631 5629 5629 5630 5631 5631 5631 5630 5630
5707 5701 5697 5692 5688 5683 5679 5674 5671 5667 5663 5660 5657 5654 5650 5647 5644 5642 5640 5638 5636 5634 5633 5632 5630 5630 5630 5629 5628 5628 5627 5627 5627 5628 5628 5626 5625 5625 5626 5627 5627 5627 5626
5703 5699 5694 5689 5684 5680 5676 5672 5668 5664 5660 5657 5653 5649 5646 5643 5640 5638 5636 5635 5633 5631 5630 5628 5627 5627 5626 5625 5624 5623 5623 5622 5623 5623 5623 5622 5621 5620 5621 5622 5623 5623 5622
5700 5695 5691 5686 5681 5676 5672 5668 5665 5661 5658 5654 5649 5646 5643 5640 5637 5635 5633 5631 5629 5627 5626 5624 5624 5623 5622 5621 5620 5619 5618 5618 5618 5618 5619 5617 5616 5616 5616 5616 5617 5618 5618
5697 5692 5688 5683 5678 5673 5669 5665 5661 5658 5654 5650 5647 5643 5639 5637 5634 5631 5629 5627 5625 5623 5622 5620 5619 5618 5617 5616 5615 5614 5614 5614 5614 5614 5614 5613 5612 5611 5611 5611 5611 5611 5612
5694 5689 5684 5679 5675 5670 5666 5661 5657 5654 5650 5647 5643 5639 5636 5633 5630 5628 5625 5623 5620 5618 5617 5615 5614 5612 5612 5611 5610 5609 5609 5609 5609 5609 5608 5608 5608 5607 5606 5605 5605 5605 5605
5689 5684 5679 5673 5670 5666 5661 5657 5653 5649 5646 5642 5639 5636 5632 5629 5626 5623 5621 5619 5616 5614 5611 5609 5608 5607 5606 5605 5606 5606 5605 5604 5604 5603 5603 5603 5603 5602 5602 5601 5600 5599 5599
5682 5678 5673 5668 5664 5660 5656 5651 5647 5644 5640 5637 5634 5631 5627 5624 5621 5618 5616 5614 5611 5608 5605 5603 5602 5601 5601 5600 5600 5599 5599 5599 5599 5598 5598 5598 5597 5596 5596 5596 5594 5594 5594
5673 5670 5666 5662 5658 5654 5649 5645 5641 5637 5633 5631 5628 5625 5622 5619 5616 5613 5611 5609 5606 5603 5600 5597 5596 5594 5593 5592 5591 5593 5594 5594 5594 5595 5595 5593 5592 5592 5590 5589 5588 5589 5588
5664 5661 5658 5655 5651 5646 5642 5638 5634 5631 5628 5625 5622 5620 5617 5614 5611 5608 5605 5603 5600 5598 5596 5593 5590 5588 5585 5582 5580 5584 5591 5593 5594 5593 5591 5589 5588 5587 5585 5584 5582 5581 5582
5655 5653 5650 5647 5643 5639 5635 5631 5628 5624 5622 5620 5617 5614 5612 5609 5606 5603 5600 5598 5596 5592 5590 5587 5583 5580 5578 5573 5570 5573 5583 5594 5598 5592 5587 5583 5582 5580 5578 5576 5575 5573 5573
5645 5643 5640 5636 5633 5630 5626 5623 5619 5617 5615 5614 5612 5609 5606 5604 5601 5598 5595 5593 5590 5587 5585 5581 5577 5573 5570 5568 5563 5558 5562 5578 5585 5587 5581 5576 5573 5571 5569 5567 5565 5564 5562
5635 5632 5630 5627 5624 5621 5618 5616 5614 5611 5611 5609 5606 5603 5601 5598 5595 5592 5589 5587 5584 5581 5579 5576 5571 5567 5562 5560 5556 5552 5548 5549 5549 5564 5572 5567 5563 5561 5559 5557 5555 5553 5551
5626 5623 5621 5618 5615 5612 5610 5607 5606 5605 5603 5601 5598 5596 5595 5592 5589 5585 5582 5579 5577 5574 5572 5568 5564 5559 5555 5551 5547 5544 5540 5534 5531 5529 5545 5551 5552 5552 5549 5545 5543 5541 5539
5618 5615 5613 5611 5607 5604 5601 5599 5597 5596 5594 5593 5591 5590 5587 5585 5582 5578 5574 5571 5568 5566 5563 5559 5554 5550 5546 5541 5536 5531 5527 5524 5524 5520 5525 5533 5535 5538 5535 5533 5531 5528 5525